• Em Portugal
  • Lista de países
  • Para 7 dias
  • Temperatura da água
  • Mapas de satélite
  • Mapa do tempo
  • Widgets de tempo
  • user-avatar
    Iniciar Sessão

    Previsão horária em Namibe

    Hoje, 24 Fevereiro, Sábado

    Tempo Temperatura Precipitação Vento Pressão Humidade
    00:00 +27°C° 0,6 mm 2 m/s 757 mmHg 78%
    01:00 +27°C° 0 mm 2 m/s 757 mmHg 80%
    02:00 +27°C° 0,1 mm 2 m/s 757 mmHg 79%
    03:00 +27°C° 0,1 mm 2 m/s 756 mmHg 78%
    04:00 +27°C° 0,1 mm 2 m/s 756 mmHg 77%
    05:00 +27°C° 0 mm 2 m/s 756 mmHg 79%
    06:00 +27°C° 0 mm 2 m/s 757 mmHg 80%
    07:00 +27°C° 0 mm 2 m/s 757 mmHg 80%
    08:00 +28°C° 0 mm 2 m/s 757 mmHg 78%
    09:00 +28°C° 0 mm 2 m/s 757 mmHg 75%
    10:00 +29°C° 0 mm 2 m/s 757 mmHg 72%
    11:00 +30°C° 0 mm 3 m/s 757 mmHg 68%
    12:00 +31°C° 0 mm 3 m/s 756 mmHg 64%
    13:00 +33°C° 0 mm 4 m/s 756 mmHg 60%
    14:00 +33°C° 0 mm 4 m/s 755 mmHg 59%
    15:00 +33°C° 0 mm 5 m/s 755 mmHg 58%
    16:00 +33°C° 0 mm 5 m/s 755 mmHg 56%
    17:00 +32°C° 0 mm 5 m/s 755 mmHg 61%
    18:00 +30°C° 0 mm 5 m/s 755 mmHg 66%
    19:00 +28°C° 0 mm 5 m/s 756 mmHg 71%
    20:00 +28°C° 0 mm 4 m/s 756 mmHg 72%
    21:00 +28°C° 0 mm 4 m/s 757 mmHg 73%
    22:00 +27°C° 0 mm 3 m/s 757 mmHg 74%
    23:00 +27°C° 0 mm 3 m/s 757 mmHg 74%

    Amanhã, 25 Fevereiro, Domingo

    Tempo Temperatura Precipitação Vento Pressão Humidade
    00:00 +27°C° 0 mm 3 m/s 757 mmHg 74%
    01:00 +27°C° 0 mm 2 m/s 757 mmHg 74%
    02:00 +27°C° 0 mm 2 m/s 757 mmHg 74%
    03:00 +27°C° 0 mm 2 m/s 756 mmHg 75%
    04:00 +27°C° 0 mm 2 m/s 756 mmHg 75%
    05:00 +27°C° 0 mm 2 m/s 757 mmHg 76%
    06:00 +27°C° 0 mm 2 m/s 757 mmHg 77%
    07:00 +27°C° 0 mm 2 m/s 757 mmHg 77%
    08:00 +28°C° 0 mm 2 m/s 757 mmHg 70%
    09:00 +30°C° 0 mm 2 m/s 758 mmHg 64%
    10:00 +31°C° 0 mm 3 m/s 758 mmHg 57%
    11:00 +33°C° 0 mm 3 m/s 757 mmHg 54%
    12:00 +34°C° 0 mm 4 m/s 757 mmHg 51%
    13:00 +35°C° 0 mm 5 m/s 757 mmHg 48%
    14:00 +34°C° 0 mm 5 m/s 756 mmHg 50%
    15:00 +34°C° 0 mm 5 m/s 756 mmHg 51%
    16:00 +33°C° 0 mm 5 m/s 755 mmHg 53%
    17:00 +32°C° 0 mm 5 m/s 756 mmHg 59%
    18:00 +29°C° 0 mm 4 m/s 756 mmHg 65%
    19:00 +28°C° 0 mm 4 m/s 757 mmHg 71%
    20:00 +28°C° 0 mm 3 m/s 757 mmHg 73%
    21:00 +27°C° 0 mm 3 m/s 758 mmHg 75%
    22:00 +27°C° 0 mm 2 m/s 758 mmHg 76%
    23:00 +27°C° 0 mm 2 m/s 758 mmHg 77%

    Depois de amanhã, 26 Fevereiro, Segunda-feira

    Tempo Temperatura Precipitação Vento Pressão Humidade
    00:00 +27°C° 0 mm 2 m/s 758 mmHg 78%
    01:00 +26°C° 0 mm 2 m/s 758 mmHg 79%
    02:00 +26°C° 0 mm 2 m/s 758 mmHg 80%
    03:00 +26°C° 0 mm 2 m/s 757 mmHg 80%
    04:00 +26°C° 0 mm 1 m/s 757 mmHg 81%
    05:00 +26°C° 0 mm 1 m/s 757 mmHg 80%
    06:00 +26°C° 0 mm 1 m/s 757 mmHg 80%
    07:00 +26°C° 0 mm 1 m/s 758 mmHg 79%
    08:00 +27°C° 0 mm 2 m/s 758 mmHg 75%
    09:00 +28°C° 0 mm 2 m/s 758 mmHg 70%
    10:00 +29°C° 0 mm 2 m/s 759 mmHg 66%
    11:00 +30°C° 0 mm 3 m/s 758 mmHg 60%
    12:00 +33°C° 0 mm 3 m/s 757 mmHg 55%
    13:00 +34°C° 0 mm 4 m/s 757 mmHg 49%
    14:00 +34°C° 0 mm 5 m/s 756 mmHg 52%
    15:00 +33°C° 0 mm 5 m/s 756 mmHg 55%
    16:00 +32°C° 0 mm 5 m/s 755 mmHg 57%
    17:00 +30°C° 0 mm 5 m/s 756 mmHg 62%
    18:00 +29°C° 0 mm 5 m/s 756 mmHg 66%
    19:00 +27°C° 0 mm 4 m/s 757 mmHg 71%
    20:00 +27°C° 0 mm 4 m/s 757 mmHg 73%
    21:00 +27°C° 0 mm 4 m/s 758 mmHg 74%
    22:00 +26°C° 0 mm 3 m/s 759 mmHg 76%
    23:00 +26°C° 0 mm 3 m/s 758 mmHg 77%

    27 Fevereiro, Terça-feira

    Tempo Temperatura Precipitação Vento Pressão Humidade
    00:00 +26°C° 0 mm 3 m/s 758 mmHg 77%
    01:00 +26°C° 0 mm 3 m/s 758 mmHg 78%
    02:00 +26°C° 0 mm 3 m/s 757 mmHg 78%
    03:00 +25°C° 0 mm 3 m/s 757 mmHg 79%
    04:00 +25°C° 0 mm 2 m/s 757 mmHg 79%
    05:00 +25°C° 0 mm 2 m/s 757 mmHg 79%
    06:00 +25°C° 0 mm 2 m/s 757 mmHg 79%
    07:00 +25°C° 0 mm 2 m/s 757 mmHg 79%
    08:00 +27°C° 0 mm 3 m/s 758 mmHg 73%
    09:00 +28°C° 0 mm 3 m/s 758 mmHg 66%
    10:00 +30°C° 0 mm 3 m/s 758 mmHg 60%
    11:00 +31°C° 0 mm 3 m/s 757 mmHg 55%
    12:00 +33°C° 0 mm 4 m/s 757 mmHg 49%
    13:00 +35°C° 0 mm 5 m/s 756 mmHg 44%
    14:00 +34°C° 0 mm 5 m/s 756 mmHg 46%
    15:00 +34°C° 0 mm 6 m/s 755 mmHg 47%
    16:00 +34°C° 0 mm 6 m/s 755 mmHg 49%
    17:00 +32°C° 0 mm 6 m/s 755 mmHg 53%
    18:00 +30°C° 0 mm 6 m/s 756 mmHg 58%
    19:00 +28°C° 0 mm 5 m/s 756 mmHg 62%
    20:00 +28°C° 0 mm 5 m/s 757 mmHg 63%
    21:00 +27°C° 0 mm 5 m/s 758 mmHg 64%
    22:00 +27°C° 0 mm 4 m/s 758 mmHg 65%
    23:00 +26°C° 0 mm 4 m/s 758 mmHg 64%

    28 Fevereiro, Quarta-feira

    Tempo Temperatura Precipitação Vento Pressão Humidade
    00:00 +26°C° 0 mm 3 m/s 758 mmHg 64%
    01:00 +26°C° 0 mm 3 m/s 758 mmHg 64%
    02:00 +26°C° 0 mm 3 m/s 758 mmHg 65%
    03:00 +25°C° 0 mm 3 m/s 758 mmHg 67%
    04:00 +25°C° 0 mm 2 m/s 757 mmHg 68%
    05:00 +25°C° 0 mm 2 m/s 758 mmHg 69%
    06:00 +25°C° 0 mm 2 m/s 758 mmHg 70%
    07:00 +25°C° 0 mm 2 m/s 758 mmHg 71%
    08:00 +26°C° 0 mm 2 m/s 759 mmHg 65%
    09:00 +28°C° 0 mm 2 m/s 759 mmHg 60%
    10:00 +29°C° 0 mm 2 m/s 759 mmHg 54%
    11:00 +30°C° 0 mm 3 m/s 758 mmHg 51%
    12:00 +32°C° 0 mm 4 m/s 758 mmHg 49%
    13:00 +33°C° 0 mm 5 m/s 757 mmHg 46%
    14:00 +33°C° 0 mm 5 m/s 757 mmHg 48%
    15:00 +32°C° 0 mm 6 m/s 756 mmHg 50%
    16:00 +32°C° 0 mm 6 m/s 756 mmHg 52%
    17:00 +30°C° 0 mm 6 m/s 757 mmHg 54%
    18:00 +28°C° 0 mm 5 m/s 757 mmHg 57%
    19:00 +27°C° 0 mm 5 m/s 758 mmHg 60%
    20:00 +27°C° 0 mm 5 m/s 758 mmHg 62%
    21:00 +26°C° 0 mm 5 m/s 758 mmHg 64%
    22:00 +26°C° 0 mm 5 m/s 759 mmHg 66%
    23:00 +26°C° 0 mm 5 m/s 759 mmHg 67%

    1 Março, Quinta-feira

    Tempo Temperatura Precipitação Vento Pressão Humidade
    00:00 +25°C° 0 mm 4 m/s 758 mmHg 67%
    01:00 +25°C° 0 mm 4 m/s 758 mmHg 68%
    02:00 +25°C° 0 mm 4 m/s 758 mmHg 69%
    03:00 +23°C° 0 mm 4 m/s 758 mmHg 71%
    04:00 +23°C° 0 mm 4 m/s 757 mmHg 72%
    05:00 +23°C° 0 mm 4 m/s 758 mmHg 73%
    06:00 +23°C° 0 mm 4 m/s 758 mmHg 74%
    07:00 +23°C° 0 mm 4 m/s 758 mmHg 75%
    08:00 +25°C° 0 mm 4 m/s 758 mmHg 66%
    09:00 +27°C° 0 mm 3 m/s 758 mmHg 58%
    10:00 +28°C° 0 mm 3 m/s 758 mmHg 50%
    11:00 +30°C° 0 mm 4 m/s 758 mmHg 44%
    12:00 +33°C° 0 mm 5 m/s 757 mmHg 38%
    13:00 +34°C° 0 mm 5 m/s 757 mmHg 32%
    14:00 +34°C° 0 mm 6 m/s 756 mmHg 35%
    15:00 +33°C° 0 mm 6 m/s 755 mmHg 37%
    16:00 +33°C° 0 mm 7 m/s 755 mmHg 40%
    17:00 +30°C° 0 mm 6 m/s 755 mmHg 47%
    18:00 +29°C° 0 mm 6 m/s 756 mmHg 54%
    19:00 +27°C° 0 mm 6 m/s 756 mmHg 61%
    20:00 +26°C° 0 mm 5 m/s 756 mmHg 64%
    21:00 +26°C° 0 mm 5 m/s 757 mmHg 66%
    22:00 +25°C° 0 mm 4 m/s 757 mmHg 69%
    23:00 +25°C° 0 mm 4 m/s 757 mmHg 69%
    Mostrar mais